| time (UTC) | temp C | wind direction | speed KPH | gust KPH | rain 1hr cm | rain 24hr cm | rain mn cm | humidity % | barometer mb |
| 20260503053045 | 4 | 333 | 8.0 | 0.0 | 0.00 | 0.00 | 0.00 | 74 | 1010.3 |
| 20260503051541 | 4 | 346 | 9.7 | 0.0 | 0.00 | 0.00 | 0.00 | 75 | 1010.3 |
| 20260503050040 | 4 | 338 | 8.0 | 0.0 | 0.00 | 0.00 | 0.00 | 76 | 1010.3 |
| 20260503044538 | 3 | 331 | 6.4 | 0.0 | 0.00 | 0.00 | 0.00 | 77 | 1010.3 |
| 20260503043039 | 3 | 304 | 8.0 | 0.0 | 0.00 | 0.00 | 0.00 | 78 | 1010.3 |
| 20260503041537 | 3 | 338 | 6.4 | 0.0 | 0.00 | 0.00 | 0.00 | 79 | 1010.3 |
| 20260503040036 | 3 | 331 | 6.4 | 0.0 | 0.00 | 0.00 | 0.00 | 79 | 1010.2 |
| 20260503034535 | 3 | 355 | 6.4 | 0.0 | 0.00 | 0.00 | 0.00 | 80 | 1010.2 |
| 20260503033042 | 3 | 327 | 8.0 | 0.0 | 0.00 | 0.00 | 0.00 | 79 | 1010.1 |
| 20260503031531 | 3 | 327 | 6.4 | 0.0 | 0.00 | 0.00 | 0.00 | 79 | 1010.2 |
| 20260503030029 | 3 | 325 | 6.4 | 0.0 | 0.00 | 0.00 | 0.00 | 79 | 1010.2 |
| 20260503024529 | 3 | 320 | 6.4 | 0.0 | 0.00 | 0.00 | 0.00 | 79 | 1010.3 |
| 20260503023028 | 3 | 293 | 6.4 | 0.0 | 0.00 | 0.00 | 0.00 | 78 | 1010.3 |
| 20260503021528 | 3 | 321 | 6.4 | 0.0 | 0.00 | 0.00 | 0.00 | 78 | 1010.3 |
| 20260503020025 | 3 | 360 | 6.4 | 0.0 | 0.00 | 0.00 | 0.00 | 78 | 1010.3 |
| 20260503014538 | 3 | 315 | 6.4 | 0.0 | 0.00 | 0.00 | 0.00 | 77 | 1010.2 |
| 20260503013023 | 3 | 321 | 8.0 | 0.0 | 0.00 | 0.00 | 0.00 | 77 | 1010.4 |
| 20260503011522 | 3 | 301 | 8.0 | 0.0 | 0.00 | 0.00 | 0.00 | 77 | 1010.3 |
| 20260503010021 | 3 | 343 | 8.0 | 0.0 | 0.00 | 0.00 | 0.00 | 78 | 1010.3 |
| 20260503004526 | 3 | 317 | 6.4 | 0.0 | 0.00 | 0.00 | 0.00 | 79 | 1010.5 |
| 20260503003018 | 4 | 320 | 6.4 | 0.0 | 0.00 | 0.00 | 0.00 | 79 | 1010.6 |
| 20260503001518 | 4 | 337 | 8.0 | 0.0 | 0.00 | 0.00 | 0.00 | 78 | 1010.6 |
| 20260503000016 | 4 | 323 | 8.0 | 0.0 | 0.00 | 0.00 | 0.00 | 78 | 1010.7 |
| 20260502234515 | 4 | 336 | 8.0 | 0.0 | 0.00 | 0.00 | 0.00 | 78 | 1010.7 |
| 20260502233014 | 4 | 337 | 8.0 | 0.0 | 0.00 | 0.00 | 0.00 | 78 | 1010.8 |
| 20260502231516 | 4 | 348 | 8.0 | 0.0 | 0.00 | 0.00 | 0.00 | 78 | 1010.9 |
| 20260502230015 | 4 | 331 | 8.0 | 0.0 | 0.00 | 0.00 | 0.00 | 78 | 1011.0 |
| 20260502224510 | 4 | 343 | 8.0 | 0.0 | 0.00 | 0.00 | 0.00 | 78 | 1010.9 |
| 20260502223009 | 4 | 332 | 9.7 | 0.0 | 0.00 | 0.00 | 0.00 | 78 | 1010.8 |
| 20260502221506 | 4 | 335 | 9.7 | 0.0 | 0.00 | 0.00 | 0.00 | 78 | 1010.9 |
| 20260502220004 | 4 | 346 | 8.0 | 0.0 | 0.00 | 0.00 | 0.56 | 78 | 1011.0 |
| 20260502214506 | 4 | 331 | 9.7 | 0.0 | 0.00 | 0.00 | 0.56 | 78 | 1011.2 |
| 20260502213003 | 4 | 279 | 8.0 | 0.0 | 0.00 | 0.00 | 0.56 | 77 | 1011.0 |
| 20260502211637 | 4 | 331 | 9.7 | 0.0 | 0.00 | 0.00 | 0.56 | 77 | 1011.2 |
| 20260502210001 | 4 | 346 | 8.0 | 0.0 | 0.00 | 0.00 | 0.56 | 77 | 1011.1 |
| 20260502204600 | 4 | 342 | 9.7 | 0.0 | 0.00 | 0.00 | 0.56 | 77 | 1011.0 |
| 20260502203104 | 4 | 336 | 8.0 | 0.0 | 0.00 | 0.00 | 0.56 | 77 | 1010.9 |
| 20260502201606 | 5 | 333 | 9.7 | 0.0 | 0.00 | 0.00 | 0.56 | 76 | 1010.8 |
| 20260502200057 | 5 | 331 | 11.3 | 0.0 | 0.00 | 0.00 | 0.56 | 77 | 1010.8 |
| 20260502194606 | 5 | 302 | 9.7 | 0.0 | 0.00 | 0.00 | 0.56 | 77 | 1010.8 |
| 20260502193053 | 5 | 343 | 9.7 | 0.0 | 0.00 | 0.00 | 0.56 | 75 | 1010.8 |
| 20260502191551 | 5 | 12 | 11.3 | 0.0 | 0.00 | 0.00 | 0.56 | 75 | 1010.7 |
| 20260502190048 | 5 | 319 | 11.3 | 0.0 | 0.00 | 0.00 | 0.56 | 74 | 1010.6 |
| 20260502184555 | 6 | 22 | 9.7 | 0.0 | 0.00 | 0.00 | 0.56 | 74 | 1010.7 |
| 20260502183057 | 6 | 346 | 12.9 | 0.0 | 0.00 | 0.00 | 0.56 | 73 | 1010.6 |
| 20260502181547 | 6 | 12 | 11.3 | 0.0 | 0.00 | 0.00 | 0.56 | 73 | 1010.6 |
| 20260502163041 | 6 | 5 | 6.4 | 0.0 | 0.00 | 0.00 | 0.56 | 91 | 1010.8 |
| 20260502161534 | 6 | 327 | 4.8 | 0.0 | 0.00 | 0.00 | 0.53 | 91 | 1010.8 |
| 20260502151526 | 6 | 323 | 4.8 | 0.0 | 0.00 | 0.00 | 0.53 | 90 | 1011.2 |
| 20260502123019 | 8 | 143 | 3.2 | 0.0 | 0.00 | 0.00 | 0.51 | 89 | 1011.2 |
| 20260502121517 | 8 | 143 | 3.2 | 0.0 | 0.00 | 0.00 | 0.51 | 89 | 1011.2 |
| 20260502114515 | 8 | 196 | 3.2 | 0.0 | 0.00 | 0.00 | 0.51 | 89 | 1011.3 |
| 20260502113014 | 8 | 196 | 3.2 | 0.0 | 0.00 | 0.00 | 0.51 | 89 | 1011.4 |
| 20260502111514 | 8 | 196 | 6.4 | 0.0 | 0.00 | 0.00 | 0.51 | 89 | 1011.6 |
| 20260502110013 | 8 | 202 | 4.8 | 0.0 | 0.00 | 0.00 | 0.51 | 89 | 1011.4 |
| 20260502104520 | 8 | 194 | 6.4 | 0.0 | 0.00 | 0.00 | 0.51 | 89 | 1011.5 |
| 20260502103014 | 7 | 216 | 6.4 | 0.0 | 0.00 | 0.00 | 0.51 | 89 | 1011.7 |
| 20260502101530 | 7 | 230 | 6.4 | 0.0 | 0.00 | 0.00 | 0.51 | 89 | 1011.5 |
| 20260502091511 | 7 | 189 | 9.7 | 0.0 | 0.00 | 0.00 | 0.51 | 88 | 1011.3 |
| 20260502071507 | 7 | 188 | 1.6 | 0.0 | 0.00 | 0.00 | 0.51 | 89 | 1011.1 |
| 20260502070008 | 7 | 188 | 1.6 | 0.0 | 0.00 | 0.00 | 0.51 | 90 | 1011.0 |
| 20260502064505 | 7 | 188 | 1.6 | 0.0 | 0.00 | 0.00 | 0.51 | 90 | 1010.9 |
| 20260502063004 | 7 | 188 | 1.6 | 0.0 | 0.00 | 0.00 | 0.51 | 90 | 1011.0 |
| 20260502061504 | 7 | 136 | 4.8 | 0.0 | 0.00 | 0.00 | 0.51 | 90 | 1010.7 |
| 20260502060009 | 7 | 153 | 4.8 | 0.0 | 0.00 | 0.00 | 0.51 | 90 | 1011.1 |
| 20260502054503 | 7 | 140 | 6.4 | 0.0 | 0.00 | 0.00 | 0.51 | 90 | 1010.9 |